Regional Weather Roundup
Issued by NWS New Orleans/Baton Rouge, LA

Home | Current Version | Previous Version | Text Only | Print | Product List | Glossary On
Versions: 1 2 3 4 5 6 7 8 9 10 11 12 13 14 15 16 17 18 19 20 21 22 23 24 25 26 27 28
000
ASUS44 KLIX 250414
RWRLIX
NEW ORLEANS REGIONAL WEATHER ROUNDUP
NATIONAL WEATHER SERVICE NEW ORLEANS LA
1100 PM CDT SUN SEP 24 2017

NOTE: "FAIR" INDICATES FEW OR NO CLOUDS BELOW 12,000 FEET WITH NO
      SIGNIFICANT WEATHER AND/OR OBSTRUCTIONS TO VISIBILITY.
      SKY/WX - SKY CONDITION AND SIGNIFICANT WEATHER.
      TMP - AIR TEMPERATURE.     DP    - DEWPOINT TEMPERATURE.
      RH  - RELATIVE HUMIDITY.   PRES  - PRESSURE.
      HI  - HEAT INDEX.          WCI   - WIND CHILL INDEX.

*  THESE STATIONS ARE NOT NWS OR FAA STATIONS AND ARE NOT UNDER
   NWS QUALITY CONTROL.

LAZ038-040-048-061>063-065>067-069-250500-
SOUTHEAST LOUISIANA

CITY           SKY/WX    TMP DP  RH WIND       PRES   REMARKS
N.O. INTL ARPT PTCLDY    77  69  76 E7        29.91S
N.O. LAKEFRONT CLEAR     78  71  79 E13       29.92S
N.O. DOWNTOWN* NOT AVBL
RESERVE*         N/A     77  71  80 SE3       29.92S
SLIDELL        CLEAR     68  66  93 CALM      29.92S
BATON ROUGE    CLEAR     71  67  87 NE5       29.93S
BOOTHVILLE     CLEAR     79  71  76 E9        29.91S
BELLE CHASSE   NOT AVBL
BOGALUSA*        N/A     69  65  89 CALM      29.95S
GALLIANO*      CLEAR     78  68  72 E5        29.91R
NEW ROADS*       N/A     73  68  84 CALM      29.93S
GONZALES*        N/A     73  70  92 CALM      29.91S
HAMMOND*       CLEAR     70  68  94 CALM      29.93S
HOUMA*         NOT AVBL
PORT FOURCHON* PTCLDY    81  70  69 E12       29.90F

$$

MSZ070-080>082-250500-
SOUTHERN MISSISSIPPI

CITY           SKY/WX    TMP DP  RH WIND       PRES   REMARKS
MCCOMB         CLEAR     71  67  87 CALM      29.95S
GULFPORT       CLEAR     71  70  96 CALM      29.92S
BILOXI         CLEAR     71  69  93 NE5       29.92F
PASCAGOULA     CLEAR     72  69  90 NE5       29.93S

$$

COASTAL OBSERVATIONS
LAKE AND NEARSHORE STATIONS

STATION/POSITION TIME  TEMP    WIND        PRES    WAVE
                       AIR SEA DIR/SP/G            HT/PER
                 (UTC) (F)     (DEG/KT/KT) (MB)    (FT/S)
PASCAGOULA       0348   75      60/  9/ 11 1012.8
WAVELAND YACHT   0348   77 84   70/  8/ 10 1013.4
GRAND ISLE       0348   80 85  110/ 10/ 15 1012.5
SOUTHWEST PASS   0348   82      80/ 15/ 20   N/A
NEW CANAL        0348   77 83   80/  8/ 11 1013.0
SHELL BEACH      0348   79 86   90/  8/ 10 1013.0

OFFSHORE STATIONS

STATION/POSITION TIME  TEMP    WIND        PRES    WAVE
                       AIR SEA DIR/SP/G            HT/PER
                 (UTC) (F)     (DEG/KT/KT) (MB)    (FT/S)
64 S DAUPHIN ISL 0350   80 82   80/ 14/ 21 1012.3    6/ 7

$$





USA.gov is the U.S. government's official web portal to all federal, state and local government web resources and services.